Regional Weather Roundup
Issued by NWS Bismarck, ND

Home | Current Version | Previous Version | Text Only | Print | Product List | Glossary On
Versions: 1 2 3 4 5 6 7 8 9 10 11 12 13 14 15 16 17 18 19 20 21 22 23 24 25 26 27 28 29 30 31 32 33 34 35 36 37 38 39 40 41 42 43 44 45 46 47 48 49 50
000
ASUS43 KBIS 240010
RWRBIS

NWR BROADCAST TEXT
NATIONAL WEATHER SERVICE BISMARCK ND
700 PM CDT SUN APR 23 2017

NOTE: "FAIR" INDICATES FEW OR NO CLOUDS BELOW 12,000 FEET WITH NO
SIGNIFICANT WEATHER AND/OR OBSTRUCTIONS TO VISIBILITY.


CITY           SKY/WX    TMP DP  RH WIND       PRES   REMARKS
WILLISTON      CLOUDY    33  28  81 E17G25    29.89F
MINOT          CLOUDY    31  27  85 E14       29.96F
MINOT AFB      CLOUDY    30  28  90 E15       29.96S WCI  19
BISMARCK       CLOUDY    37  32  82 E17G28    29.87F
DICKINSON      CLOUDY    36  31  82 E17       29.78F
GARRISON         N/A     29  27  92 E24G30    29.90F WCI  15
HETTINGER ARPT FAIR      47  36  65 E15       29.77S
JAMESTOWN      CLOUDY    33  30  88 NE21G28   29.90F
HAZEN          CLOUDY    32  30  93 E15G22    29.90F FOG
LINTON         MIX PCPN  36  36 100 NE21      29.83F
MANDAN         CLOUDY    34  34 100 E16G25    29.87R
STANLEY        CLOUDY    28  28 100 E20       29.94S WCI  15
TIOGA          CLOUDY    28  28 100 E22G30    29.91F WCI  15
WATFORD CITY   CLOUDY    30  32 100 E17       29.87S WCI  18
$$

CITY           SKY/WX    TMP DP  RH WIND       PRES   REMARKS
GRAND FORKS    LGT SNOW  33  30  88 NE17G29   30.04F FOG
GRAND FORKS AF LGT SNOW  30  28  92 E17G23    30.04F FOG     WCI  18
DEVILS LAKE    LGT SNOW  28  26  92 E20       30.00F FOG     WCI  15
FARGO          FAIR      41  33  73 NE21      29.93F
CAVALIER       FAIR      37  16  41 E13       30.07S
GRAFTON        FAIR      34  30  86 SE13      30.09F
GWINNER        CLEAR     48  39  71 MISG      29.84S
LANGDON        CLOUDY    36  18  48 E22       30.02F
ROLLA          MOCLDY    34  18  51 E16G22    30.01S
$$

CITY           SKY/WX    TMP DP  RH WIND       PRES   REMARKS
ABERDEEN       FAIR      69  35  28 MISG      29.71F
MOBRIDGE       FAIR      53  38  56 NE31G39   29.68R
BUFFALO          N/A     52  39  61 E17       29.65F
RAPID CITY     FAIR      68  40  35 NE12      29.65S
GLASGOW        CLOUDY    40  30  67 E21       29.76S
SIDNEY         CLOUDY    34  30  85 E15       29.84S
WOLF POINT     CLOUDY    37  30  75 E23G29    29.79F
GLENDIVE       FAIR      42  32  67 E20G25    29.75F
MILES CITY     CLOUDY    53  38  56 E17       29.65S
BAKER          FAIR      43  34  70 E22       29.73F
$$

CITY           SKY/WX    TMP DP  RH WIND       PRES   REMARKS
BILLINGS       PTSUNNY   65  34  31 SW6       29.59F
GREAT FALLS    FAIR      51  41  68 S6        29.70S
REGINA         CLOUDY    37  18  44 SE20G29   29.90F
ESTEVAN        CLOUDY    34  25  69 E23G30    29.93F
$$





USA.gov is the U.S. government's official web portal to all federal, state and local government web resources and services.